TimePDT,TemperatureF,Dew PointF,Humidity,Sea Level PressureIn,VisibilityMPH,Wind Direction,Wind SpeedMPH,Gust SpeedMPH,PrecipitationIn,Events,Conditions,WindDirDegrees,DateUTC
12:15 AM,35.6,33.8,93,29.82,10.0,West,9.2,-,N/A,,Overcast,260,2013-10-10 07:15:00
12:35 AM,35.6,32.0,87,29.83,10.0,West,11.5,-,N/A,,Overcast,270,2013-10-10 07:35:00
12:55 AM,35.6,32.0,87,29.84,10.0,West,6.9,-,N/A,,Overcast,280,2013-10-10 07:55:00
1:15 AM,35.6,32.0,87,29.84,10.0,West,8.1,-,N/A,,Overcast,280,2013-10-10 08:15:00
1:35 AM,35.6,32.0,87,29.84,10.0,West,6.9,-,N/A,,Overcast,280,2013-10-10 08:35:00
1:55 AM,35.6,32.0,87,29.84,10.0,West,9.2,-,N/A,,Overcast,270,2013-10-10 08:55:00
2:15 AM,35.6,30.2,81,29.85,10.0,WNW,8.1,-,N/A,,Overcast,300,2013-10-10 09:15:00
2:35 AM,33.8,32.0,93,29.85,10.0,West,6.9,-,N/A,,Overcast,280,2013-10-10 09:35:00
2:55 AM,33.8,32.0,93,29.84,10.0,West,6.9,-,N/A,,Overcast,260,2013-10-10 09:55:00
3:15 AM,33.8,30.2,87,29.84,10.0,West,3.5,-,N/A,,Overcast,270,2013-10-10 10:15:00
3:35 AM,33.8,30.2,87,29.85,10.0,West,5.8,-,N/A,,Overcast,280,2013-10-10 10:35:00
3:55 AM,32.0,30.2,93,29.86,10.0,NW,3.5,-,N/A,,Scattered Clouds,310,2013-10-10 10:55:00
4:15 AM,32.0,28.4,87,29.86,10.0,Calm,Calm,-,N/A,,Clear,0,2013-10-10 11:15:00
4:35 AM,32.0,28.4,87,29.87,10.0,NNW,4.6,-,N/A,,Scattered Clouds,340,2013-10-10 11:35:00
4:55 AM,32.0,30.2,93,29.88,10.0,Calm,Calm,-,N/A,,Overcast,0,2013-10-10 11:55:00
5:15 AM,33.8,30.2,87,29.89,10.0,WNW,5.8,-,N/A,,Overcast,300,2013-10-10 12:15:00
5:35 AM,33.8,30.2,87,29.89,10.0,West,8.1,-,N/A,,Overcast,270,2013-10-10 12:35:00
5:55 AM,33.8,30.2,87,29.89,10.0,West,6.9,-,N/A,,Overcast,280,2013-10-10 12:55:00
6:15 AM,33.8,30.2,87,29.88,10.0,West,6.9,-,N/A,,Overcast,280,2013-10-10 13:15:00
6:35 AM,33.8,30.2,87,29.88,10.0,West,5.8,-,N/A,,Mostly Cloudy,280,2013-10-10 13:35:00
6:55 AM,32.0,30.2,93,29.89,10.0,West,5.8,-,N/A,,Scattered Clouds,270,2013-10-10 13:55:00
7:15 AM,32.0,30.2,93,29.89,10.0,WNW,3.5,-,N/A,,Clear,300,2013-10-10 14:15:00
7:35 AM,32.0,30.2,93,29.91,10.0,Calm,Calm,-,N/A,,Scattered Clouds,0,2013-10-10 14:35:00
7:55 AM,33.8,30.2,87,29.91,10.0,Calm,Calm,-,N/A,,Clear,0,2013-10-10 14:55:00
8:15 AM,37.4,30.2,75,29.92,10.0,Calm,Calm,-,N/A,,Clear,0,2013-10-10 15:15:00
8:35 AM,39.2,32.0,75,29.92,10.0,West,4.6,-,N/A,,Clear,270,2013-10-10 15:35:00
8:55 AM,41.0,32.0,70,29.94,10.0,WNW,4.6,-,N/A,,Clear,300,2013-10-10 15:55:00
9:15 AM,42.8,30.2,61,29.95,10.0,West,4.6,-,N/A,,Clear,280,2013-10-10 16:15:00
9:35 AM,44.6,32.0,61,29.95,10.0,WSW,6.9,-,N/A,,Clear,240,2013-10-10 16:35:00
9:55 AM,46.4,28.4,50,29.95,10.0,Calm,Calm,-,N/A,,Clear,0,2013-10-10 16:55:00
10:15 AM,46.4,28.4,50,29.96,10.0,WNW,4.6,-,N/A,,Scattered Clouds,290,2013-10-10 17:15:00
10:35 AM,46.4,28.4,50,29.96,10.0,WNW,10.4,-,N/A,,Scattered Clouds,300,2013-10-10 17:35:00
10:55 AM,50.0,28.4,43,29.97,10.0,WNW,8.1,-,N/A,,Mostly Cloudy,290,2013-10-10 17:55:00
11:15 AM,48.2,28.4,46,29.96,10.0,North,5.8,-,N/A,,Overcast,360,2013-10-10 18:15:00
11:35 AM,50.0,28.4,43,29.97,10.0,West,9.2,-,N/A,,Overcast,270,2013-10-10 18:35:00
11:55 AM,50.0,28.4,43,29.97,10.0,WSW,9.2,-,N/A,,Overcast,250,2013-10-10 18:55:00
12:15 PM,50.0,26.6,40,29.97,10.0,WNW,5.8,-,N/A,,Overcast,290,2013-10-10 19:15:00
12:35 PM,50.0,28.4,43,29.97,10.0,North,4.6,-,N/A,,Mostly Cloudy,350,2013-10-10 19:35:00
12:55 PM,51.8,24.8,35,29.97,10.0,Calm,Calm,-,N/A,,Mostly Cloudy,0,2013-10-10 19:55:00
1:15 PM,53.6,24.8,33,29.97,10.0,NNE,8.1,-,N/A,,Mostly Cloudy,20,2013-10-10 20:15:00
1:35 PM,53.6,23.0,30,29.96,10.0,NNW,3.5,-,N/A,,Scattered Clouds,330,2013-10-10 20:35:00
1:55 PM,53.6,24.8,33,29.96,10.0,NNW,8.1,-,N/A,,Scattered Clouds,330,2013-10-10 20:55:00
2:15 PM,53.6,23.0,30,29.95,10.0,Calm,Calm,-,N/A,,Clear,0,2013-10-10 21:15:00
2:35 PM,55.4,23.0,29,29.96,10.0,SSW,10.4,-,N/A,,Scattered Clouds,200,2013-10-10 21:35:00
2:55 PM,55.4,21.2,26,29.97,10.0,North,5.8,-,N/A,,Scattered Clouds,350,2013-10-10 21:55:00
3:15 PM,53.6,24.8,33,29.97,10.0,North,6.9,-,N/A,,Scattered Clouds,10,2013-10-10 22:15:00
3:35 PM,57.2,23.0,27,29.98,10.0,NNW,5.8,16.1,N/A,,Mostly Cloudy,340,2013-10-10 22:35:00
3:55 PM,55.4,24.8,31,29.98,10.0,NNW,5.8,-,N/A,,Overcast,340,2013-10-10 22:55:00
4:15 PM,53.6,24.8,33,29.99,10.0,NNW,5.8,-,N/A,,Overcast,330,2013-10-10 23:15:00
4:35 PM,53.6,24.8,33,29.99,10.0,North,10.4,-,N/A,,Mostly Cloudy,10,2013-10-10 23:35:00
4:55 PM,55.4,23.0,29,29.99,10.0,NW,9.2,-,N/A,,Mostly Cloudy,320,2013-10-10 23:55:00
5:15 PM,51.8,26.6,38,29.99,10.0,West,10.4,-,N/A,,Mostly Cloudy,280,2013-10-11 00:15:00
5:35 PM,53.6,26.6,35,29.99,10.0,West,9.2,-,N/A,,Mostly Cloudy,280,2013-10-11 00:35:00
5:55 PM,53.6,26.6,35,30.00,10.0,WNW,12.7,17.3,N/A,,Overcast,290,2013-10-11 00:55:00
6:15 PM,50.0,30.2,47,30.01,10.0,WNW,11.5,-,N/A,,Overcast,290,2013-10-11 01:15:00
6:35 PM,48.2,30.2,50,30.02,10.0,WNW,8.1,-,N/A,,Overcast,300,2013-10-11 01:35:00
6:55 PM,48.2,30.2,50,30.02,10.0,WNW,6.9,-,N/A,,Overcast,300,2013-10-11 01:55:00
7:15 PM,44.6,30.2,57,30.02,10.0,WNW,8.1,-,N/A,,Mostly Cloudy,300,2013-10-11 02:15:00
7:35 PM,44.6,30.2,57,30.03,10.0,West,4.6,-,N/A,,Scattered Clouds,280,2013-10-11 02:35:00
7:55 PM,42.8,30.2,61,30.04,10.0,West,5.8,-,N/A,,Clear,260,2013-10-11 02:55:00
8:15 PM,42.8,30.2,61,30.05,10.0,WNW,8.1,-,N/A,,Clear,290,2013-10-11 03:15:00
8:35 PM,41.0,30.2,65,30.05,10.0,West,8.1,-,N/A,,Clear,260,2013-10-11 03:35:00
8:55 PM,39.2,30.2,70,30.06,10.0,West,5.8,-,N/A,,Clear,270,2013-10-11 03:55:00
9:15 PM,39.2,30.2,70,30.07,10.0,West,5.8,-,N/A,,Clear,270,2013-10-11 04:15:00
9:35 PM,39.2,28.4,65,30.07,10.0,West,6.9,-,N/A,,Clear,260,2013-10-11 04:35:00
9:55 PM,35.6,28.4,75,30.08,10.0,Calm,Calm,-,N/A,,Clear,0,2013-10-11 04:55:00
10:15 PM,35.6,28.4,75,30.09,10.0,West,5.8,-,N/A,,Clear,270,2013-10-11 05:15:00
10:35 PM,35.6,28.4,75,30.09,10.0,Calm,Calm,-,N/A,,Clear,0,2013-10-11 05:35:00
10:55 PM,33.8,28.4,81,30.10,10.0,West,5.8,-,N/A,,Clear,270,2013-10-11 05:55:00
11:15 PM,33.8,28.4,81,30.09,10.0,Calm,Calm,-,N/A,,Clear,0,2013-10-11 06:15:00
11:55 PM,33.8,28.4,81,30.10,10.0,Calm,Calm,-,N/A,,Clear,0,2013-10-11 06:55:00